{"data":{"norad_id":38043,"epoch":"2026-05-25T00:31:58.467072Z","epoch_age_seconds":73856,"freshness":"FRESH","line1":"1 38043U 11080D   26145.02220448 -.00000114  00000+0 -55453-4 0  9991","line2":"2 38043  52.0066 135.4084 0000228  46.6292 348.6857 12.62266891665129","mean_motion":12.62266891,"eccentricity":2.28e-5,"inclination_deg":52.0066,"raan_deg":135.4084,"arg_perigee_deg":46.6292,"mean_anomaly_deg":348.6857,"bstar":-5.5453e-5,"rev_number":66512,"period_min":114.08046984891,"perigee_km":1413.4240643703,"apogee_km":1413.7793676558,"semimajor_km":7791.738716013,"source":"CELESTRAK","updated_at":"2026-05-25T13:38:23.045418Z"}}